Ilulissat, Greenland

6:46 AM -02 on June 26, 2017 (GMT -0200)
Ilulissat

Weather History for BGJN - August, 2014

Change the Weather History Date:

Thursday, August 28, 2014

  Actual Average Record
Temperature  
Mean Temperature 35 °F -  
Max Temperature 42 °F 39 °F 57 °F (2003)
Min Temperature 28 °F 32 °F 28 °F (2014)
Degree Days  
Heating Degree Days 30    
Moisture  
Dew Point 25 °F    
Average Humidity 57    
Maximum Humidity 80    
Minimum Humidity 25    
Precipitation  
Precipitation 0.00 in - - ()
Sea Level Pressure  
Sea Level Pressure 29.73 in    
Wind  
Wind Speed 3 mph ()    
Max Wind Speed 13 mph    
Max Gust Speed -    
Visibility 8.7 miles    
Events      
Averages and records for this station are not official NWS values.
T = Trace of Precipitation, MM = Missing Value Source: Averaged Metar Reports

Daily Weather History Graph

Daily Weather History Graph

Search for Another Location

Airport or City:

Trip Planner

Search our weather history database for the weather conditions in past years. The results will help you decide how hot, cold, wet, or windy it might be!

Date:

Astronomy

Aug. 28, 2014 Rise Set
Actual Time 5:27 AM -02 9:20 PM -02
Civil Twilight 4:11 AM -02 10:35 PM -02
Nautical Twilight 1:58 AM -02 12:52 AM -02
Astronomical Twilight Sun does not set Sun does not set
Moon 10:04 AM -02 (8/28) 8:40 PM -02 (8/28)
Length of Visible Light 18h 24m
Length of Day
15h 52m
Waxing Crescent, 8% of the Moon is Illuminated
Aug 28
Waxing Crescent
Sep 2
First Quarter
Sep 8
Full
Sep 16
Last Quarter
Sep 24
New

Hourly Weather History & Observations

Time (-02) Temp. Windchill Dew Point Humidity Pressure Visibility Wind Dir Wind Speed Gust Speed Precip Events Conditions
12:00 AM 36 °F - 27 °F 58% 29.75 in 31 mi Calm Calm - -  
12:50 AM 33.8 °F - 26.6 °F 75% 29.74 in 6.2 mi Calm Calm - N/A   Unknown
1:00 AM 33 °F - 25 °F 62% 29.74 in 31 mi Calm Calm - -  
1:50 AM 33.8 °F - 26.6 °F 75% 29.74 in 6.2 mi Calm Calm - N/A   Unknown
2:00 AM 32 °F - 25 °F 66% 29.75 in 31 mi Calm Calm - -  
2:50 AM 32.0 °F - 26.6 °F 80% 29.74 in 6.2 mi Calm Calm - N/A   Unknown
3:00 AM 32 °F - 26 °F 72% 29.75 in 31 mi North 3.5 mph - -  
3:50 AM 32.0 °F - 26.6 °F 80% 29.74 in 6.2 mi Calm Calm - N/A   Unknown
4:00 AM 32 °F - 25 °F 66% 29.75 in 31 mi Calm Calm - -  
4:50 AM 28.4 °F - 23.0 °F 80% 29.74 in 6.2 mi Calm Calm - N/A   Unknown
5:00 AM 29 °F - 24 °F 76% 29.75 in 31 mi SSE 3.5 mph - -  
5:50 AM 30.2 °F - 24.8 °F 80% 29.74 in 6.2 mi NNW 2.3 mph - N/A   Unknown
6:00 AM 31 °F - 24 °F 66% 29.75 in 31 mi North 2.3 mph - -  
6:50 AM 30.2 °F - 24.8 °F 80% 29.74 in 6.2 mi Calm Calm - N/A   Clear
7:00 AM 30 °F - 23 °F 67% 29.75 in 31 mi SSE 2.3 mph - -  
7:50 AM 33.8 °F - 24.8 °F 70% 29.74 in 6.2 mi Variable 1.2 mph - N/A   Clear
8:00 AM 34 °F - 24 °F 54% 29.76 in 28 mi North 1.2 mph - -  
8:50 AM 35.6 °F - 24.8 °F 65% 29.74 in 6.2 mi Calm Calm - N/A   Clear
9:00 AM 36 °F - 23 °F 48% 29.75 in 25 mi Calm Calm - -  
9:50 AM 37.4 °F 34.9 °F 24.8 °F 60% 29.74 in 6.2 mi Variable 3.5 mph - N/A   Clear
10:00 AM 38 °F - 20 °F 36% 29.76 in 28 mi WNW 3.5 mph - -  
11:00 AM 38 °F - 20 °F 36% 29.76 in 22 mi WNW 4.6 mph - -  
11:50 AM 37.4 °F 30.8 °F 21.2 °F 52% 29.74 in 6.2 mi North 9.2 mph - N/A   Clear
12:00 PM 38 °F - 20 °F 36% 29.75 in 19 mi North 9.2 mph - -  
1:00 PM 41 °F - 17 °F 25% 29.73 in 19 mi North 11.5 mph - -  
2:00 PM 38 °F - 23 °F 42% 29.73 in 18 mi North 10.4 mph - -  
3:00 PM 40 °F - 21 °F 34% 29.73 in 22 mi North 9.2 mph - -  
3:50 PM 39.2 °F 34.2 °F 28.4 °F 65% 29.71 in 6.2 mi North 6.9 mph - N/A   Clear
4:00 PM 40 °F - 26 °F 46% 29.72 in 22 mi North 6.9 mph - -  
4:50 PM 41.0 °F 35.8 °F 28.4 °F 61% 29.71 in 6.2 mi NNE 8.1 mph - N/A   Partly Cloudy
5:00 PM 40 °F - 28 °F 49% 29.71 in 19 mi North 5.8 mph - -  
5:50 PM 41.0 °F 35.2 °F 28.4 °F 61% 29.71 in 6.2 mi North 9.2 mph - N/A   Unknown
6:00 PM 41 °F - 26 °F 43% 29.71 in 19 mi North 9.2 mph - -  
6:50 PM 42.8 °F 38.0 °F 24.8 °F 49% 29.68 in 6.2 mi North 8.1 mph - N/A   Unknown
7:00 PM 42 °F - 22 °F 31% 29.71 in 28 mi North 12.7 mph - -  
7:50 PM 41.0 °F 34.7 °F 24.8 °F 53% 29.68 in 6.2 mi NNE 10.4 mph - N/A   Unknown
8:00 PM 41 °F - 24 °F 38% 29.70 in 31 mi NNE 9.2 mph - -  
8:50 PM 39.2 °F 32.5 °F 26.6 °F 61% 29.68 in 6.2 mi NNE 10.4 mph - N/A   Unknown
9:00 PM 40 °F - 24 °F 40% 29.70 in 31 mi NNE 9.2 mph - -  
9:50 PM 39.2 °F 31.6 °F 26.6 °F 61% 29.68 in 6.2 mi North 12.7 mph - N/A   Scattered Clouds
10:00 PM 39 °F - 24 °F 42% 29.70 in 31 mi North 11.5 mph - -   Mostly Cloudy
10:50 PM 39.2 °F 31.6 °F 26.6 °F 61% 29.68 in 6.2 mi North 12.7 mph - N/A   Unknown
11:00 PM 39 °F - 24 °F 42% 29.69 in 28 mi NNE 11.5 mph - -  
11:50 PM 37.4 °F 31.4 °F 24.8 °F 60% 29.68 in 6.2 mi North 8.1 mph - N/A   Unknown